Time,TemperatureF,DewpointF,PressureIn,WindDirection,WindDirectionDegrees,WindSpeedMPH,WindSpeedGustMPH,Humidity,HourlyPrecipIn,Conditions,Clouds,dailyrainin,SoftwareType,DateUTC
2012-11-10 00:01:00,32.9,29.4,29.92,West,270,2.2,2.2,87,0.00,,,0.00,WUHU216HW,2012-11-10 08:01:00,
2012-11-10 00:06:00,32.9,29.8,29.92,WSW,248,1.6,2.2,88,0.00,,,0.00,WUHU216HW,2012-11-10 08:06:00,
2012-11-10 00:11:00,32.9,29.8,29.92,WSW,248,1.6,2.2,88,0.00,,,0.00,WUHU216HW,2012-11-10 08:11:00,
2012-11-10 00:16:00,32.9,29.8,29.92,WSW,248,1.8,2.2,88,0.00,,,0.00,WUHU216HW,2012-11-10 08:16:00,
2012-11-10 00:21:00,32.9,29.8,29.92,SW,225,0.4,2.2,88,0.00,,,0.00,WUHU216HW,2012-11-10 08:21:00,
2012-11-10 00:26:00,32.9,29.8,29.92,WNW,293,1.6,1.6,88,0.00,,,0.00,WUHU216HW,2012-11-10 08:26:00,
2012-11-10 00:31:00,32.9,29.8,29.92,West,270,1.1,1.8,88,0.00,,,0.00,WUHU216HW,2012-11-10 08:31:00,
2012-11-10 00:36:00,32.9,29.8,29.92,West,270,0.9,1.8,88,0.00,,,0.00,WUHU216HW,2012-11-10 08:36:00,
2012-11-10 00:41:00,32.9,29.8,29.92,NNW,338,1.1,2.0,88,0.00,,,0.00,WUHU216HW,2012-11-10 08:41:00,
2012-11-10 00:46:00,32.9,29.8,29.93,NW,315,1.6,2.0,88,0.00,,,0.00,WUHU216HW,2012-11-10 08:46:00,
2012-11-10 00:51:00,32.9,29.8,29.93,WNW,293,0.7,1.6,88,0.00,,,0.00,WUHU216HW,2012-11-10 08:51:00,
2012-11-10 00:56:00,32.9,29.8,29.93,West,270,2.2,2.2,88,0.00,,,0.00,WUHU216HW,2012-11-10 08:56:00,
2012-11-10 01:01:00,32.9,29.8,29.93,WSW,248,1.8,2.2,88,0.00,,,0.00,WUHU216HW,2012-11-10 09:01:00,
2012-11-10 01:06:00,32.8,29.6,29.93,WSW,248,1.3,2.5,88,0.00,,,0.00,WUHU216HW,2012-11-10 09:06:00,
2012-11-10 01:11:00,32.8,29.6,29.93,West,270,1.6,2.5,88,0.00,,,0.00,WUHU216HW,2012-11-10 09:11:00,
2012-11-10 01:16:00,32.6,29.4,29.93,West,270,1.8,1.8,88,0.00,,,0.00,WUHU216HW,2012-11-10 09:16:00,
2012-11-10 01:21:00,32.6,29.7,29.93,WSW,248,1.1,2.2,89,0.00,,,0.00,WUHU216HW,2012-11-10 09:21:00,
2012-11-10 01:26:00,32.6,29.7,29.93,WNW,293,1.1,2.2,89,0.00,,,0.00,WUHU216HW,2012-11-10 09:26:00,
2012-11-10 01:31:00,32.6,29.7,29.93,West,270,1.6,1.8,89,0.00,,,0.00,WUHU216HW,2012-11-10 09:31:00,
2012-11-10 01:36:00,32.6,29.7,29.93,West,270,1.6,1.8,89,0.00,,,0.00,WUHU216HW,2012-11-10 09:36:00,
2012-11-10 01:41:00,32.6,29.7,29.94,West,270,1.8,2.7,89,0.00,,,0.00,WUHU216HW,2012-11-10 09:41:00,
2012-11-10 01:46:00,32.6,29.7,29.94,WSW,248,1.6,2.7,89,0.00,,,0.00,WUHU216HW,2012-11-10 09:46:00,
2012-11-10 01:51:00,32.4,29.5,29.94,West,270,2.0,2.5,89,0.00,,,0.00,WUHU216HW,2012-11-10 09:51:00,
2012-11-10 01:56:00,32.4,29.5,29.94,West,270,1.3,2.5,89,0.00,,,0.00,WUHU216HW,2012-11-10 09:56:00,
2012-11-10 02:01:00,32.4,29.5,29.94,West,270,1.3,2.5,89,0.00,,,0.00,WUHU216HW,2012-11-10 10:01:00,
2012-11-10 02:06:00,32.4,29.5,29.94,West,270,2.5,2.5,89,0.00,,,0.00,WUHU216HW,2012-11-10 10:06:00,
2012-11-10 02:11:00,32.2,29.4,29.94,WNW,293,1.6,2.9,89,0.00,,,0.00,WUHU216HW,2012-11-10 10:11:00,
2012-11-10 02:16:00,32.2,29.4,29.94,West,270,0.7,2.9,89,0.00,,,0.00,WUHU216HW,2012-11-10 10:16:00,
2012-11-10 02:21:00,32.0,29.3,29.95,WNW,293,1.3,2.9,89,0.00,,,0.00,WUHU216HW,2012-11-10 10:21:00,
2012-11-10 02:26:00,32.0,29.3,29.94,WNW,293,1.1,2.9,89,0.00,,,0.00,WUHU216HW,2012-11-10 10:26:00,
2012-11-10 02:31:00,32.0,29.3,29.95,North,0,0.7,1.8,89,0.00,,,0.00,WUHU216HW,2012-11-10 10:31:00,
2012-11-10 02:36:00,32.2,29.4,29.95,West,270,0.0,1.8,89,0.00,,,0.00,WUHU216HW,2012-11-10 10:36:00,
2012-11-10 02:41:00,32.4,29.5,29.95,West,270,1.6,1.6,89,0.00,,,0.00,WUHU216HW,2012-11-10 10:41:00,
2012-11-10 02:46:00,32.4,29.5,29.95,West,270,1.1,2.0,89,0.00,,,0.00,WUHU216HW,2012-11-10 10:46:00,
2012-11-10 02:51:00,32.2,29.4,29.95,NW,315,1.1,2.0,89,0.00,,,0.00,WUHU216HW,2012-11-10 10:51:00,
2012-11-10 02:56:00,32.4,29.5,29.95,WNW,293,0.9,2.0,89,0.00,,,0.00,WUHU216HW,2012-11-10 10:56:00,
2012-11-10 03:01:00,32.2,29.4,29.95,WNW,293,0.7,2.0,89,0.00,,,0.00,WUHU216HW,2012-11-10 11:01:00,
2012-11-10 03:06:00,32.2,29.4,29.95,NNW,338,1.8,1.8,89,0.00,,,0.00,WUHU216HW,2012-11-10 11:06:00,
2012-11-10 03:11:00,32.2,29.4,29.95,North,0,1.1,2.5,89,0.00,,,0.00,WUHU216HW,2012-11-10 11:11:00,
2012-11-10 03:16:00,32.4,29.5,29.95,NNW,338,1.6,2.5,89,0.00,,,0.00,WUHU216HW,2012-11-10 11:16:00,
2012-11-10 03:21:00,32.6,29.7,29.95,West,270,2.2,2.9,89,0.00,,,0.00,WUHU216HW,2012-11-10 11:21:00,
2012-11-10 03:26:00,32.4,29.5,29.95,West,270,1.8,2.9,89,0.00,,,0.00,WUHU216HW,2012-11-10 11:26:00,
2012-11-10 03:31:00,32.4,29.5,29.95,West,270,1.8,2.5,89,0.00,,,0.00,WUHU216HW,2012-11-10 11:31:00,
2012-11-10 03:36:00,32.2,29.4,29.95,WSW,248,2.5,2.7,89,0.00,,,0.00,WUHU216HW,2012-11-10 11:36:00,
2012-11-10 03:41:00,32.0,29.3,29.96,WSW,248,2.2,2.7,89,0.00,,,0.00,WUHU216HW,2012-11-10 11:41:00,
2012-11-10 03:46:00,32.0,29.3,29.96,WSW,248,1.8,2.9,89,0.00,,,0.00,WUHU216HW,2012-11-10 11:46:00,
2012-11-10 03:51:00,31.9,29.1,29.96,WSW,248,2.2,2.9,89,0.00,,,0.00,WUHU216HW,2012-11-10 11:51:00,
2012-11-10 03:56:00,31.7,28.9,29.96,WSW,248,3.4,3.4,89,0.00,,,0.00,WUHU216HW,2012-11-10 11:56:00,
2012-11-10 04:01:00,31.7,28.9,29.96,WSW,248,2.5,3.4,89,0.00,,,0.00,WUHU216HW,2012-11-10 12:01:00,
2012-11-10 04:06:00,31.5,28.7,29.96,WSW,248,2.5,3.4,89,0.00,,,0.00,WUHU216HW,2012-11-10 12:06:00,
2012-11-10 04:11:00,31.7,28.9,29.96,WSW,248,1.8,2.7,89,0.00,,,0.00,WUHU216HW,2012-11-10 12:11:00,
2012-11-10 04:16:00,31.5,28.7,29.97,WSW,248,2.0,2.7,89,0.00,,,0.00,WUHU216HW,2012-11-10 12:16:00,
2012-11-10 04:21:00,31.5,28.7,29.97,West,270,1.8,3.1,89,0.00,,,0.00,WUHU216HW,2012-11-10 12:21:00,
2012-11-10 04:26:00,31.5,28.7,29.97,West,270,2.2,3.1,89,0.00,,,0.00,WUHU216HW,2012-11-10 12:26:00,
2012-11-10 04:31:00,31.3,28.5,29.97,WSW,248,2.5,2.5,89,0.00,,,0.00,WUHU216HW,2012-11-10 12:31:00,
2012-11-10 04:36:00,31.5,28.7,29.97,West,270,1.8,2.5,89,0.00,,,0.00,WUHU216HW,2012-11-10 12:36:00,
2012-11-10 04:41:00,31.5,28.7,29.97,WNW,293,1.6,2.2,89,0.00,,,0.00,WUHU216HW,2012-11-10 12:41:00,
2012-11-10 04:46:00,31.5,29.0,29.97,West,270,1.1,1.8,90,0.00,,,0.00,WUHU216HW,2012-11-10 12:46:00,
2012-11-10 04:51:00,31.5,28.7,29.98,West,270,2.5,2.5,89,0.00,,,0.00,WUHU216HW,2012-11-10 12:51:00,
2012-11-10 04:56:00,31.5,28.7,29.98,North,0,0.7,2.5,89,0.00,,,0.00,WUHU216HW,2012-11-10 12:56:00,
2012-11-10 05:01:00,31.7,28.9,29.98,West,270,1.1,3.4,89,0.00,,,0.00,WUHU216HW,2012-11-10 13:01:00,
2012-11-10 05:06:00,31.9,29.1,29.98,WNW,293,1.1,3.4,89,0.00,,,0.00,WUHU216HW,2012-11-10 13:06:00,
2012-11-10 05:11:00,31.9,29.1,29.98,West,270,1.8,2.0,89,0.00,,,0.00,WUHU216HW,2012-11-10 13:11:00,
2012-11-10 05:16:00,31.9,29.1,29.99,West,270,0.4,2.2,89,0.00,,,0.00,WUHU216HW,2012-11-10 13:16:00,
2012-11-10 05:21:00,31.9,29.1,29.99,West,270,1.3,2.5,89,0.00,,,0.00,WUHU216HW,2012-11-10 13:21:00,
2012-11-10 05:26:00,31.9,29.1,29.99,NW,315,0.9,2.5,89,0.00,,,0.00,WUHU216HW,2012-11-10 13:26:00,
2012-11-10 05:31:00,31.9,29.1,29.99,ESE,113,0.4,2.2,89,0.00,,,0.00,WUHU216HW,2012-11-10 13:31:00,
2012-11-10 05:36:00,32.0,29.3,29.99,NNW,338,0.0,1.8,89,0.00,,,0.00,WUHU216HW,2012-11-10 13:36:00,
2012-11-10 05:41:00,32.0,29.3,29.99,NNE,23,1.1,1.8,89,0.00,,,0.00,WUHU216HW,2012-11-10 13:41:00,
2012-11-10 05:46:00,32.0,29.3,29.99,West,270,1.1,1.8,89,0.00,,,0.00,WUHU216HW,2012-11-10 13:46:00,
2012-11-10 05:51:00,32.2,29.4,29.99,NW,315,1.3,3.4,89,0.00,,,0.00,WUHU216HW,2012-11-10 13:51:00,
2012-11-10 05:56:00,32.0,29.3,29.99,NNW,338,0.0,3.4,89,0.00,,,0.00,WUHU216HW,2012-11-10 13:56:00,
2012-11-10 06:01:00,32.0,29.3,29.99,NE,45,0.4,2.2,89,0.00,,,0.00,WUHU216HW,2012-11-10 14:01:00,
2012-11-10 06:06:00,32.2,29.4,29.99,NW,315,1.8,1.8,89,0.00,,,0.00,WUHU216HW,2012-11-10 14:06:00,
2012-11-10 06:11:00,32.2,29.4,29.99,SW,225,2.0,2.0,89,0.00,,,0.00,WUHU216HW,2012-11-10 14:11:00,
2012-11-10 06:16:00,32.2,29.4,30.00,West,270,0.7,2.0,89,0.00,,,0.00,WUHU216HW,2012-11-10 14:16:00,
2012-11-10 06:21:00,32.0,29.3,29.99,West,270,2.5,2.9,89,0.00,,,0.00,WUHU216HW,2012-11-10 14:21:00,
2012-11-10 06:26:00,32.0,29.3,30.00,WSW,248,1.3,2.9,89,0.00,,,0.00,WUHU216HW,2012-11-10 14:26:00,
2012-11-10 06:31:00,31.7,28.9,30.00,WSW,248,1.8,2.5,89,0.00,,,0.00,WUHU216HW,2012-11-10 14:31:00,
2012-11-10 06:36:00,31.7,28.9,30.00,WSW,248,1.8,2.5,89,0.00,,,0.00,WUHU216HW,2012-11-10 14:36:00,
2012-11-10 06:41:00,31.5,28.7,30.00,WSW,248,2.2,2.5,89,0.00,,,0.00,WUHU216HW,2012-11-10 14:41:00,
2012-11-10 06:46:00,31.5,28.7,30.00,WSW,248,2.2,2.7,89,0.00,,,0.00,WUHU216HW,2012-11-10 14:46:00,
2012-11-10 06:51:00,31.3,28.5,30.00,WSW,248,2.7,3.4,89,0.00,,,0.00,WUHU216HW,2012-11-10 14:51:00,
2012-11-10 06:56:00,31.3,28.5,30.00,WSW,248,1.3,3.4,89,0.00,,,0.00,WUHU216HW,2012-11-10 14:56:00,
2012-11-10 07:01:00,31.3,28.5,30.01,WSW,248,2.5,3.4,89,0.00,,,0.00,WUHU216HW,2012-11-10 15:01:00,
2012-11-10 07:06:00,31.1,28.4,30.01,WSW,248,1.8,3.4,89,0.00,,,0.00,WUHU216HW,2012-11-10 15:06:00,
2012-11-10 07:11:00,31.1,28.4,30.01,West,270,1.8,3.4,89,0.00,,,0.00,WUHU216HW,2012-11-10 15:11:00,
2012-11-10 07:16:00,31.1,28.6,30.02,West,270,1.8,2.5,90,0.00,,,0.00,WUHU216HW,2012-11-10 15:16:00,
2012-11-10 07:21:00,31.1,28.6,30.02,WSW,248,1.8,2.5,90,0.00,,,0.00,WUHU216HW,2012-11-10 15:21:00,
2012-11-10 07:26:00,31.3,28.5,30.02,West,270,1.8,2.5,89,0.00,,,0.00,WUHU216HW,2012-11-10 15:26:00,
2012-11-10 07:31:00,31.3,28.5,30.02,West,270,1.8,2.5,89,0.00,,,0.00,WUHU216HW,2012-11-10 15:31:00,
2012-11-10 07:36:00,31.5,28.7,30.03,WSW,248,1.3,2.2,89,0.00,,,0.00,WUHU216HW,2012-11-10 15:36:00,
2012-11-10 07:41:00,31.7,28.9,30.03,WSW,248,1.8,2.7,89,0.00,,,0.00,WUHU216HW,2012-11-10 15:41:00,
2012-11-10 07:46:00,31.9,29.1,30.03,West,270,2.2,2.9,89,0.00,,,0.00,WUHU216HW,2012-11-10 15:46:00,
2012-11-10 07:51:00,32.0,29.3,30.03,West,270,1.1,2.9,89,0.00,,,0.00,WUHU216HW,2012-11-10 15:51:00,
2012-11-10 07:56:00,32.0,29.8,30.03,West,270,0.0,1.8,91,0.00,,,0.00,WUHU216HW,2012-11-10 15:56:00,
2012-11-10 08:01:00,32.4,30.1,30.03,West,270,0.0,1.1,91,0.00,,,0.00,WUHU216HW,2012-11-10 16:01:00,
2012-11-10 08:06:00,32.8,30.4,30.03,West,270,1.1,1.1,91,0.00,,,0.00,WUHU216HW,2012-11-10 16:06:00,
2012-11-10 08:11:00,32.9,30.6,30.03,WSW,248,1.1,1.6,91,0.00,,,0.00,WUHU216HW,2012-11-10 16:11:00,
2012-11-10 08:16:00,33.3,31.0,30.04,WSW,248,1.3,1.6,91,0.00,,,0.00,WUHU216HW,2012-11-10 16:16:00,
2012-11-10 08:21:00,33.7,31.2,30.04,WSW,248,1.1,1.6,91,0.00,,,0.00,WUHU216HW,2012-11-10 16:21:00,
2012-11-10 08:26:00,33.8,31.4,30.04,WSW,248,0.0,1.6,91,0.00,,,0.00,WUHU216HW,2012-11-10 16:26:00,
2012-11-10 08:31:00,34.2,31.8,30.04,WSW,248,0.0,1.1,91,0.00,,,0.00,WUHU216HW,2012-11-10 16:31:00,
2012-11-10 08:36:00,34.4,32.2,30.04,WSW,248,0.0,0.7,92,0.00,,,0.00,WUHU216HW,2012-11-10 16:36:00,
2012-11-10 08:41:00,34.6,32.4,30.04,WSW,248,0.0,0.7,92,0.00,,,0.00,WUHU216HW,2012-11-10 16:41:00,
2012-11-10 08:46:00,34.9,32.8,30.04,SW,225,0.0,0.9,92,0.00,,,0.00,WUHU216HW,2012-11-10 16:46:00,
2012-11-10 08:51:00,34.9,32.8,30.04,SW,225,1.8,2.7,92,0.00,,,0.00,WUHU216HW,2012-11-10 16:51:00,
2012-11-10 08:56:00,35.3,33.1,30.04,SW,225,0.4,3.1,92,0.00,,,0.00,WUHU216HW,2012-11-10 16:56:00,
2012-11-10 09:01:00,35.6,33.5,30.04,WSW,248,0.2,3.1,92,0.00,,,0.00,WUHU216HW,2012-11-10 17:01:00,
2012-11-10 09:06:00,35.6,33.5,30.04,WSW,248,1.1,1.3,92,0.00,,,0.00,WUHU216HW,2012-11-10 17:06:00,
2012-11-10 09:11:00,35.8,33.7,30.04,SW,225,1.1,2.7,92,0.00,,,0.00,WUHU216HW,2012-11-10 17:11:00,
2012-11-10 09:16:00,36.0,33.8,30.05,West,270,1.8,2.7,92,0.00,,,0.00,WUHU216HW,2012-11-10 17:16:00,
2012-11-10 09:21:00,36.0,33.8,30.05,WSW,248,1.1,2.7,92,0.00,,,0.00,WUHU216HW,2012-11-10 17:21:00,
2012-11-10 09:26:00,36.2,33.8,30.05,WSW,248,1.3,2.9,91,0.00,,,0.00,WUHU216HW,2012-11-10 17:26:00,
2012-11-10 09:31:00,36.2,33.8,30.05,WSW,248,1.1,2.9,91,0.00,,,0.00,WUHU216HW,2012-11-10 17:31:00,
2012-11-10 09:36:00,36.4,33.9,30.06,West,270,2.5,3.4,91,0.00,,,0.00,WUHU216HW,2012-11-10 17:36:00,
2012-11-10 09:41:00,36.5,34.1,30.06,WSW,248,0.4,3.4,91,0.00,,,0.00,WUHU216HW,2012-11-10 17:41:00,
2012-11-10 09:46:00,36.5,34.1,30.06,WSW,248,1.6,4.0,91,0.00,,,0.00,WUHU216HW,2012-11-10 17:46:00,
2012-11-10 09:51:00,36.7,34.3,30.06,West,270,3.1,4.0,91,0.01,,,0.01,WUHU216HW,2012-11-10 17:51:00,
2012-11-10 09:56:00,37.1,34.7,30.06,West,270,3.8,3.8,91,0.01,,,0.01,WUHU216HW,2012-11-10 17:56:00,
2012-11-10 10:01:00,37.1,34.7,30.06,WSW,248,3.1,4.5,91,0.01,,,0.01,WUHU216HW,2012-11-10 18:01:00,
2012-11-10 10:06:00,37.3,34.8,30.06,SW,225,1.1,4.5,91,0.01,,,0.01,WUHU216HW,2012-11-10 18:06:00,
2012-11-10 10:11:00,37.4,35.0,30.07,WSW,248,0.4,3.6,91,0.01,,,0.01,WUHU216HW,2012-11-10 18:11:00,
2012-11-10 10:16:00,37.4,35.0,30.07,SW,225,0.4,2.5,91,0.01,,,0.01,WUHU216HW,2012-11-10 18:16:00,
2012-11-10 10:21:00,37.6,35.2,30.07,WSW,248,0.4,2.5,91,0.01,,,0.01,WUHU216HW,2012-11-10 18:21:00,
2012-11-10 10:26:00,37.8,35.4,30.07,SW,225,0.2,2.0,91,0.01,,,0.01,WUHU216HW,2012-11-10 18:26:00,
2012-11-10 10:31:00,37.8,35.1,30.07,SW,225,0.2,1.8,90,0.01,,,0.01,WUHU216HW,2012-11-10 18:31:00,
2012-11-10 10:36:00,37.8,35.1,30.07,WSW,248,1.1,1.8,90,0.01,,,0.01,WUHU216HW,2012-11-10 18:36:00,
2012-11-10 10:41:00,37.8,35.1,30.07,SSW,203,0.0,1.8,90,0.01,,,0.01,WUHU216HW,2012-11-10 18:41:00,
2012-11-10 10:46:00,38.2,35.5,30.08,NW,315,0.0,1.1,90,0.01,,,0.01,WUHU216HW,2012-11-10 18:46:00,
2012-11-10 10:51:00,38.3,35.6,30.08,NE,45,2.2,2.9,90,0.00,,,0.01,WUHU216HW,2012-11-10 18:51:00,
2012-11-10 10:56:00,38.7,36.0,30.08,East,90,0.7,2.9,90,0.00,,,0.01,WUHU216HW,2012-11-10 18:56:00,
2012-11-10 11:01:00,38.9,36.2,30.07,ENE,68,2.0,2.7,90,0.00,,,0.01,WUHU216HW,2012-11-10 19:01:00,
2012-11-10 11:06:00,39.2,36.5,30.08,NE,45,2.5,4.0,90,0.00,,,0.01,WUHU216HW,2012-11-10 19:06:00,
2012-11-10 11:11:00,39.6,36.9,30.07,NE,45,2.9,4.7,90,0.00,,,0.01,WUHU216HW,2012-11-10 19:11:00,
2012-11-10 11:16:00,40.1,37.2,30.08,NE,45,2.2,4.7,89,0.00,,,0.01,WUHU216HW,2012-11-10 19:16:00,
2012-11-10 11:21:00,40.5,37.5,30.08,ENE,68,2.5,4.5,89,0.00,,,0.01,WUHU216HW,2012-11-10 19:21:00,
2012-11-10 11:26:00,41.0,37.7,30.07,NE,45,3.6,4.5,88,0.00,,,0.01,WUHU216HW,2012-11-10 19:26:00,
2012-11-10 11:31:00,41.4,37.8,30.08,ENE,68,2.2,4.5,87,0.00,,,0.01,WUHU216HW,2012-11-10 19:31:00,
2012-11-10 11:36:00,41.6,38.0,30.08,NE,45,1.6,4.0,87,0.00,,,0.01,WUHU216HW,2012-11-10 19:36:00,
2012-11-10 11:41:00,41.8,38.2,30.08,ESE,113,0.9,4.0,87,0.00,,,0.01,WUHU216HW,2012-11-10 19:41:00,
2012-11-10 11:46:00,42.1,38.2,30.08,SE,135,3.1,4.3,86,0.00,,,0.01,WUHU216HW,2012-11-10 19:46:00,
2012-11-10 11:51:00,42.3,38.3,30.08,SSE,158,0.0,4.3,86,0.00,,,0.01,WUHU216HW,2012-11-10 19:51:00,
2012-11-10 11:56:00,42.7,38.7,30.09,ESE,113,2.7,3.1,86,0.00,,,0.01,WUHU216HW,2012-11-10 19:56:00,
2012-11-10 12:01:00,42.8,38.6,30.09,WNW,293,1.1,3.1,85,0.00,,,0.01,WUHU216HW,2012-11-10 20:01:00,
2012-11-10 12:06:00,43.0,38.8,30.09,ENE,68,3.4,3.4,85,0.00,,,0.01,WUHU216HW,2012-11-10 20:06:00,
2012-11-10 12:11:00,43.4,39.2,30.09,ESE,113,1.3,3.4,85,0.00,,,0.01,WUHU216HW,2012-11-10 20:11:00,
2012-11-10 12:16:00,43.6,39.1,30.09,NE,45,2.2,4.7,84,0.00,,,0.01,WUHU216HW,2012-11-10 20:16:00,
2012-11-10 12:21:00,43.6,38.7,30.09,North,0,1.1,4.7,83,0.00,,,0.01,WUHU216HW,2012-11-10 20:21:00,
2012-11-10 12:26:00,43.6,38.4,30.09,NNE,23,2.5,4.5,82,0.00,,,0.01,WUHU216HW,2012-11-10 20:26:00,
2012-11-10 12:31:00,43.6,38.4,30.10,SE,135,2.5,2.7,82,0.00,,,0.01,WUHU216HW,2012-11-10 20:31:00,
2012-11-10 12:36:00,43.6,38.4,30.10,ENE,68,2.5,3.1,82,0.00,,,0.01,WUHU216HW,2012-11-10 20:36:00,
2012-11-10 12:41:00,43.4,37.9,30.10,NE,45,2.2,5.1,81,0.00,,,0.01,WUHU216HW,2012-11-10 20:41:00,
2012-11-10 12:46:00,43.4,37.9,30.10,ESE,113,1.1,5.1,81,0.00,,,0.01,WUHU216HW,2012-11-10 20:46:00,
2012-11-10 12:51:00,43.4,37.3,30.10,NNE,23,2.7,3.6,79,0.00,,,0.01,WUHU216HW,2012-11-10 20:51:00,
2012-11-10 12:56:00,43.4,37.6,30.10,ENE,68,3.4,4.0,80,0.00,,,0.01,WUHU216HW,2012-11-10 20:56:00,
2012-11-10 13:01:00,43.4,37.6,30.10,North,0,0.2,4.0,80,0.00,,,0.01,WUHU216HW,2012-11-10 21:01:00,
2012-11-10 13:06:00,43.4,36.6,30.10,ENE,68,2.7,4.7,77,0.00,,,0.01,WUHU216HW,2012-11-10 21:06:00,
2012-11-10 13:11:00,43.2,36.8,30.10,ENE,68,2.5,4.7,78,0.00,,,0.01,WUHU216HW,2012-11-10 21:11:00,
2012-11-10 13:16:00,43.2,36.5,30.10,NE,45,3.6,4.0,77,0.00,,,0.01,WUHU216HW,2012-11-10 21:16:00,
2012-11-10 13:21:00,43.2,36.8,30.10,ENE,68,0.4,4.0,78,0.00,,,0.01,WUHU216HW,2012-11-10 21:21:00,
2012-11-10 13:26:00,43.2,36.5,30.10,East,90,0.9,4.9,77,0.00,,,0.01,WUHU216HW,2012-11-10 21:26:00,
2012-11-10 13:31:00,43.0,36.3,30.10,NE,45,4.9,4.9,77,0.00,,,0.01,WUHU216HW,2012-11-10 21:31:00,
2012-11-10 13:36:00,43.0,36.3,30.10,NE,45,1.6,4.9,77,0.00,,,0.01,WUHU216HW,2012-11-10 21:36:00,
2012-11-10 13:41:00,43.0,36.3,30.10,ESE,113,1.1,3.8,77,0.00,,,0.01,WUHU216HW,2012-11-10 21:41:00,
2012-11-10 13:46:00,42.8,36.1,30.11,ENE,68,1.8,3.6,77,0.00,,,0.01,WUHU216HW,2012-11-10 21:46:00,
2012-11-10 13:51:00,43.0,36.3,30.10,ESE,113,2.7,4.3,77,0.00,,,0.01,WUHU216HW,2012-11-10 21:51:00,
2012-11-10 13:56:00,43.0,36.3,30.10,NE,45,3.8,4.3,77,0.00,,,0.01,WUHU216HW,2012-11-10 21:56:00,
2012-11-10 14:01:00,42.8,36.1,30.11,East,90,1.6,3.8,77,0.00,,,0.01,WUHU216HW,2012-11-10 22:01:00,
2012-11-10 14:06:00,42.8,36.1,30.11,East,90,2.5,3.8,77,0.00,,,0.01,WUHU216HW,2012-11-10 22:06:00,
2012-11-10 14:11:00,42.8,36.1,30.10,ESE,113,0.9,3.4,77,0.00,,,0.01,WUHU216HW,2012-11-10 22:11:00,
2012-11-10 14:16:00,42.8,35.8,30.10,ESE,113,3.4,4.0,76,0.00,,,0.01,WUHU216HW,2012-11-10 22:16:00,
2012-11-10 14:21:00,42.8,35.8,30.10,NNW,338,3.4,4.0,76,0.00,,,0.01,WUHU216HW,2012-11-10 22:21:00,
2012-11-10 14:26:00,42.7,35.9,30.10,SE,135,1.8,4.0,77,0.00,,,0.01,WUHU216HW,2012-11-10 22:26:00,
2012-11-10 14:31:00,42.5,35.5,30.10,North,0,1.3,4.0,76,0.00,,,0.01,WUHU216HW,2012-11-10 22:31:00,
2012-11-10 14:36:00,42.5,35.5,30.10,ESE,113,0.9,4.7,76,0.00,,,0.01,WUHU216HW,2012-11-10 22:36:00,
2012-11-10 14:41:00,42.5,35.5,30.10,NE,45,3.4,4.7,76,0.00,,,0.01,WUHU216HW,2012-11-10 22:41:00,
2012-11-10 14:46:00,42.3,35.6,30.10,NE,45,2.5,3.8,77,0.00,,,0.01,WUHU216HW,2012-11-10 22:46:00,
2012-11-10 14:51:00,42.1,35.4,30.10,East,90,2.2,3.4,77,0.00,,,0.01,WUHU216HW,2012-11-10 22:51:00,
2012-11-10 14:56:00,42.1,35.4,30.10,NNE,23,1.6,3.4,77,0.00,,,0.01,WUHU216HW,2012-11-10 22:56:00,
2012-11-10 15:01:00,42.1,35.4,30.10,NNE,23,2.0,3.4,77,0.00,,,0.01,WUHU216HW,2012-11-10 23:01:00,
2012-11-10 15:06:00,41.9,35.2,30.11,North,0,0.2,2.0,77,0.00,,,0.01,WUHU216HW,2012-11-10 23:06:00,
2012-11-10 15:11:00,41.9,35.2,30.11,ENE,68,1.1,3.1,77,0.00,,,0.01,WUHU216HW,2012-11-10 23:11:00,
2012-11-10 15:16:00,41.8,35.0,30.11,ESE,113,1.1,3.1,77,0.00,,,0.01,WUHU216HW,2012-11-10 23:16:00,
2012-11-10 15:21:00,41.8,34.8,30.11,NNW,338,1.1,4.0,76,0.00,,,0.01,WUHU216HW,2012-11-10 23:21:00,
2012-11-10 15:26:00,41.6,34.6,30.11,NNE,23,0.7,4.0,76,0.00,,,0.01,WUHU216HW,2012-11-10 23:26:00,
2012-11-10 15:31:00,41.6,34.8,30.12,East,90,0.4,2.5,77,0.00,,,0.01,WUHU216HW,2012-11-10 23:31:00,
2012-11-10 15:36:00,41.4,34.7,30.12,NNE,23,1.3,1.8,77,0.00,,,0.01,WUHU216HW,2012-11-10 23:36:00,
2012-11-10 15:41:00,41.4,34.7,30.12,West,270,0.4,1.8,77,0.00,,,0.01,WUHU216HW,2012-11-10 23:41:00,
2012-11-10 15:46:00,41.2,34.5,30.12,NW,315,0.4,1.8,77,0.00,,,0.01,WUHU216HW,2012-11-10 23:46:00,
2012-11-10 15:51:00,41.2,34.5,30.12,West,270,0.7,1.6,77,0.00,,,0.01,WUHU216HW,2012-11-10 23:51:00,
2012-11-10 15:56:00,41.0,34.3,30.12,NNW,338,0.0,2.2,77,0.00,,,0.01,WUHU216HW,2012-11-10 23:56:00,
2012-11-10 16:01:00,40.9,34.5,30.12,NW,315,2.0,2.2,78,0.00,,,0.01,WUHU216HW,2012-11-11 00:01:00,
2012-11-10 16:06:00,40.7,34.3,30.12,North,0,1.1,2.0,78,0.00,,,0.01,WUHU216HW,2012-11-11 00:06:00,
2012-11-10 16:11:00,40.5,34.1,30.12,NNW,338,1.3,2.0,78,0.00,,,0.01,WUHU216HW,2012-11-11 00:11:00,
2012-11-10 16:16:00,40.3,33.9,30.12,WSW,248,0.4,1.6,78,0.00,,,0.01,WUHU216HW,2012-11-11 00:16:00,
2012-11-10 16:21:00,40.3,33.9,30.13,West,270,0.4,1.6,78,0.00,,,0.01,WUHU216HW,2012-11-11 00:21:00,
2012-11-10 16:26:00,40.1,33.9,30.13,WNW,293,1.1,1.1,78,0.00,,,0.01,WUHU216HW,2012-11-11 00:26:00,
2012-11-10 16:31:00,40.0,33.9,30.13,West,270,1.8,1.8,79,0.00,,,0.01,WUHU216HW,2012-11-11 00:31:00,
2012-11-10 16:36:00,39.8,33.9,30.13,NNW,338,0.9,1.8,79,0.00,,,0.01,WUHU216HW,2012-11-11 00:36:00,
2012-11-10 16:41:00,39.4,33.5,30.13,West,270,2.0,2.0,79,0.00,,,0.01,WUHU216HW,2012-11-11 00:41:00,
2012-11-10 16:46:00,39.1,33.1,30.13,West,270,1.1,2.0,79,0.00,,,0.01,WUHU216HW,2012-11-11 00:46:00,
2012-11-10 16:51:00,38.7,32.8,30.13,WSW,248,2.0,2.0,79,0.00,,,0.01,WUHU216HW,2012-11-11 00:51:00,
2012-11-10 16:56:00,38.3,32.4,30.13,WSW,248,1.6,2.0,79,0.00,,,0.01,WUHU216HW,2012-11-11 00:56:00,
2012-11-10 17:01:00,38.0,32.0,30.13,WSW,248,2.0,2.2,79,0.00,,,0.01,WUHU216HW,2012-11-11 01:01:00,
2012-11-10 17:06:00,37.8,32.2,30.13,WSW,248,1.8,2.5,80,0.00,,,0.01,WUHU216HW,2012-11-11 01:06:00,
2012-11-10 17:11:00,37.4,31.9,30.13,WSW,248,2.0,2.5,80,0.00,,,0.01,WUHU216HW,2012-11-11 01:11:00,
2012-11-10 17:16:00,37.1,31.5,30.13,WSW,248,2.0,2.5,80,0.00,,,0.01,WUHU216HW,2012-11-11 01:16:00,
2012-11-10 17:21:00,36.7,31.1,30.14,WSW,248,1.8,2.5,80,0.00,,,0.01,WUHU216HW,2012-11-11 01:21:00,
2012-11-10 17:26:00,36.5,31.0,30.13,WSW,248,2.0,2.5,80,0.00,,,0.01,WUHU216HW,2012-11-11 01:26:00,
2012-11-10 17:31:00,36.4,31.1,30.14,WSW,248,2.2,2.5,81,0.00,,,0.01,WUHU216HW,2012-11-11 01:31:00,
2012-11-10 17:36:00,36.2,30.9,30.14,WSW,248,2.2,2.5,81,0.00,,,0.01,WUHU216HW,2012-11-11 01:36:00,
2012-11-10 17:41:00,35.8,30.5,30.14,West,270,1.3,2.5,81,0.00,,,0.01,WUHU216HW,2012-11-11 01:41:00,
2012-11-10 17:46:00,35.6,30.6,30.14,West,270,2.0,2.5,82,0.00,,,0.01,WUHU216HW,2012-11-11 01:46:00,
2012-11-10 17:51:00,35.6,30.6,30.14,WSW,248,2.2,2.5,82,0.00,,,0.01,WUHU216HW,2012-11-11 01:51:00,
2012-11-10 17:56:00,35.5,30.4,30.15,West,270,2.5,2.7,82,0.00,,,0.01,WUHU216HW,2012-11-11 01:56:00,
2012-11-10 18:01:00,35.1,30.1,30.15,WSW,248,2.5,2.7,82,0.00,,,0.01,WUHU216HW,2012-11-11 02:01:00,
2012-11-10 18:06:00,34.9,29.9,30.15,WSW,248,2.9,2.9,82,0.00,,,0.01,WUHU216HW,2012-11-11 02:06:00,
2012-11-10 18:11:00,34.7,29.7,30.15,WSW,248,2.5,3.4,82,0.00,,,0.01,WUHU216HW,2012-11-11 02:11:00,
2012-11-10 18:16:00,34.6,29.5,30.15,WSW,248,2.5,3.4,82,0.00,,,0.01,WUHU216HW,2012-11-11 02:16:00,
2012-11-10 18:21:00,34.2,29.5,30.15,WSW,248,2.5,2.7,83,0.00,,,0.01,WUHU216HW,2012-11-11 02:21:00,
2012-11-10 18:26:00,34.0,29.4,30.15,WSW,248,2.0,2.7,83,0.00,,,0.01,WUHU216HW,2012-11-11 02:26:00,
2012-11-10 18:31:00,34.0,29.4,30.15,West,270,1.8,2.5,83,0.00,,,0.01,WUHU216HW,2012-11-11 02:31:00,
2012-11-10 18:36:00,34.0,29.4,30.15,West,270,1.3,2.5,83,0.00,,,0.01,WUHU216HW,2012-11-11 02:36:00,
2012-11-10 18:41:00,33.8,29.2,30.15,West,270,1.6,2.0,83,0.00,,,0.01,WUHU216HW,2012-11-11 02:41:00,
2012-11-10 18:46:00,33.8,29.2,30.15,West,270,2.0,2.5,83,0.00,,,0.01,WUHU216HW,2012-11-11 02:46:00,
2012-11-10 18:51:00,33.8,29.2,30.15,WSW,248,2.2,2.5,83,0.00,,,0.01,WUHU216HW,2012-11-11 02:51:00,
2012-11-10 18:56:00,33.7,29.0,30.15,West,270,1.8,2.5,83,0.00,,,0.01,WUHU216HW,2012-11-11 02:56:00,
2012-11-10 19:01:00,33.5,28.8,30.15,West,270,2.0,2.7,83,0.00,,,0.01,WUHU216HW,2012-11-11 03:01:00,
2012-11-10 19:06:00,33.5,28.8,30.16,West,270,1.8,2.9,83,0.00,,,0.01,WUHU216HW,2012-11-11 03:06:00,
2012-11-10 19:11:00,33.3,28.6,30.15,West,270,0.7,2.9,83,0.00,,,0.01,WUHU216HW,2012-11-11 03:11:00,
2012-11-10 19:16:00,33.3,28.6,30.16,West,270,1.6,2.2,83,0.00,,,0.01,WUHU216HW,2012-11-11 03:16:00,
2012-11-10 19:21:00,33.3,28.6,30.16,WNW,293,1.3,2.5,83,0.00,,,0.01,WUHU216HW,2012-11-11 03:21:00,
2012-11-10 19:26:00,33.3,28.6,30.15,West,270,1.8,2.5,83,0.00,,,0.01,WUHU216HW,2012-11-11 03:26:00,
2012-11-10 19:31:00,33.1,28.8,30.16,West,270,2.0,2.2,84,0.00,,,0.01,WUHU216HW,2012-11-11 03:31:00,
2012-11-10 19:36:00,33.1,28.8,30.16,WSW,248,2.0,2.9,84,0.00,,,0.01,WUHU216HW,2012-11-11 03:36:00,
2012-11-10 19:41:00,33.1,28.8,30.16,West,270,1.6,2.9,84,0.00,,,0.01,WUHU216HW,2012-11-11 03:41:00,
2012-11-10 19:46:00,32.9,28.6,30.16,West,270,1.6,2.5,84,0.00,,,0.01,WUHU216HW,2012-11-11 03:46:00,
2012-11-10 19:51:00,32.9,28.6,30.16,WNW,293,1.1,2.2,84,0.00,,,0.01,WUHU216HW,2012-11-11 03:51:00,
2012-11-10 19:56:00,32.9,28.6,30.16,West,270,1.1,2.0,84,0.00,,,0.01,WUHU216HW,2012-11-11 03:56:00,
2012-11-10 20:01:00,32.9,28.6,30.16,West,270,1.6,1.8,84,0.00,,,0.01,WUHU216HW,2012-11-11 04:01:00,
2012-11-10 20:06:00,32.9,28.6,30.16,NW,315,1.1,1.6,84,0.00,,,0.01,WUHU216HW,2012-11-11 04:06:00,
2012-11-10 20:11:00,32.9,28.6,30.16,West,270,1.8,1.8,84,0.00,,,0.01,WUHU216HW,2012-11-11 04:11:00,
2012-11-10 20:16:00,32.8,28.4,30.15,West,270,1.8,2.0,84,0.00,,,0.01,WUHU216HW,2012-11-11 04:16:00,
2012-11-10 20:21:00,32.8,28.4,30.15,West,270,1.8,2.5,84,0.00,,,0.01,WUHU216HW,2012-11-11 04:21:00,
2012-11-10 20:26:00,32.8,28.7,30.16,WSW,248,2.5,2.7,85,0.00,,,0.01,WUHU216HW,2012-11-11 04:26:00,
2012-11-10 20:31:00,32.6,28.5,30.16,WSW,248,2.5,2.7,85,0.00,,,0.01,WUHU216HW,2012-11-11 04:31:00,
2012-11-10 20:36:00,32.0,28.1,30.16,WSW,248,1.8,2.5,85,0.00,,,0.01,WUHU216HW,2012-11-11 04:36:00,
2012-11-10 20:41:00,32.0,28.1,30.16,West,270,1.8,2.5,85,0.00,,,0.01,WUHU216HW,2012-11-11 04:41:00,
2012-11-10 20:46:00,32.0,28.1,30.16,WSW,248,2.2,2.5,85,0.00,,,0.01,WUHU216HW,2012-11-11 04:46:00,
2012-11-10 20:51:00,32.0,28.1,30.16,WSW,248,2.2,2.5,85,0.00,,,0.01,WUHU216HW,2012-11-11 04:51:00,
2012-11-10 20:56:00,32.0,28.1,30.16,West,270,2.5,2.5,85,0.00,,,0.01,WUHU216HW,2012-11-11 04:56:00,
2012-11-10 21:00:00,32.0,28.4,30.16,WSW,248,2.2,2.7,86,0.00,,,0.01,WUHU216HW,2012-11-11 05:00:00,
2012-11-10 21:05:00,32.0,28.4,30.16,WSW,248,1.8,2.7,86,0.00,,,0.01,WUHU216HW,2012-11-11 05:05:00,
2012-11-10 21:10:00,32.0,28.4,30.16,West,270,1.3,2.7,86,0.00,,,0.01,WUHU216HW,2012-11-11 05:10:00,
2012-11-10 21:15:00,32.0,28.4,30.16,West,270,2.2,2.2,86,0.00,,,0.01,WUHU216HW,2012-11-11 05:15:00,
2012-11-10 21:20:00,32.0,28.4,30.17,WSW,248,1.6,2.5,86,0.00,,,0.01,WUHU216HW,2012-11-11 05:20:00,
2012-11-10 21:25:00,31.7,28.0,30.17,West,270,1.1,2.5,86,0.00,,,0.01,WUHU216HW,2012-11-11 05:25:00,
2012-11-10 21:30:00,31.9,28.2,30.17,West,270,2.5,2.5,86,0.00,,,0.01,WUHU216HW,2012-11-11 05:30:00,
2012-11-10 21:35:00,31.9,28.2,30.17,West,270,1.8,2.5,86,0.00,,,0.01,WUHU216HW,2012-11-11 05:35:00,
2012-11-10 21:40:00,31.9,28.2,30.17,WSW,248,1.3,2.5,86,0.00,,,0.01,WUHU216HW,2012-11-11 05:40:00,
2012-11-10 21:45:00,31.7,28.0,30.17,WSW,248,1.6,2.5,86,0.00,,,0.01,WUHU216HW,2012-11-11 05:45:00,
2012-11-10 21:50:00,31.7,28.0,30.17,West,270,0.9,1.8,86,0.00,,,0.01,WUHU216HW,2012-11-11 05:50:00,
2012-11-10 21:55:00,31.9,28.2,30.18,WSW,248,2.0,2.5,86,0.00,,,0.01,WUHU216HW,2012-11-11 05:55:00,
2012-11-10 22:00:00,31.9,28.2,30.18,WSW,248,2.5,2.5,86,0.00,,,0.01,WUHU216HW,2012-11-11 06:00:00,
2012-11-10 22:05:00,31.7,28.0,30.18,WSW,248,1.8,2.5,86,0.00,,,0.01,WUHU216HW,2012-11-11 06:05:00,
2012-11-10 22:10:00,31.7,28.0,30.17,West,270,1.8,2.5,86,0.00,,,0.01,WUHU216HW,2012-11-11 06:10:00,
2012-11-10 22:15:00,31.7,28.0,30.18,West,270,1.1,2.5,86,0.00,,,0.01,WUHU216HW,2012-11-11 06:15:00,
2012-11-10 22:20:00,31.9,28.4,30.17,West,270,1.3,2.0,87,0.00,,,0.01,WUHU216HW,2012-11-11 06:20:00,
2012-11-10 22:25:00,31.9,28.4,30.17,West,270,1.6,2.5,87,0.00,,,0.01,WUHU216HW,2012-11-11 06:25:00,
2012-11-10 22:30:00,32.0,28.6,30.17,WSW,248,2.5,2.7,87,0.00,,,0.01,WUHU216HW,2012-11-11 06:30:00,
2012-11-10 22:35:00,32.0,28.6,30.17,WSW,248,2.0,2.7,87,0.00,,,0.01,WUHU216HW,2012-11-11 06:35:00,
2012-11-10 22:40:00,32.0,28.6,30.18,WSW,248,1.8,2.7,87,0.00,,,0.01,WUHU216HW,2012-11-11 06:40:00,
2012-11-10 22:45:00,31.9,28.4,30.17,WSW,248,1.8,2.7,87,0.00,,,0.01,WUHU216HW,2012-11-11 06:45:00,
2012-11-10 22:50:00,31.7,28.3,30.18,WSW,248,1.3,2.0,87,0.00,,,0.01,WUHU216HW,2012-11-11 06:50:00,
2012-11-10 22:55:00,31.9,28.4,30.18,WSW,248,1.1,1.8,87,0.00,,,0.01,WUHU216HW,2012-11-11 06:55:00,
2012-11-10 23:00:00,32.0,28.6,30.18,WSW,248,0.9,1.3,87,0.00,,,0.01,WUHU216HW,2012-11-11 07:00:00,
2012-11-10 23:05:00,32.2,29.1,30.18,WSW,248,0.0,1.1,88,0.00,,,0.01,WUHU216HW,2012-11-11 07:05:00,
2012-11-10 23:10:00,32.4,29.3,30.17,WSW,248,0.0,0.9,88,0.00,,,0.01,WUHU216HW,2012-11-11 07:10:00,
2012-11-10 23:15:00,32.6,29.4,30.18,WSW,248,0.0,0.0,88,0.00,,,0.01,WUHU216HW,2012-11-11 07:15:00,
2012-11-10 23:20:00,32.8,29.6,30.18,WSW,248,1.1,1.1,88,0.00,,,0.01,WUHU216HW,2012-11-11 07:20:00,
2012-11-10 23:25:00,32.8,29.6,30.18,West,270,1.6,1.8,88,0.00,,,0.01,WUHU216HW,2012-11-11 07:25:00,
2012-11-10 23:30:00,32.8,29.6,30.18,WSW,248,1.8,2.0,88,0.00,,,0.01,WUHU216HW,2012-11-11 07:30:00,
2012-11-10 23:35:00,32.6,29.4,30.18,WSW,248,1.8,2.0,88,0.00,,,0.01,WUHU216HW,2012-11-11 07:35:00,
2012-11-10 23:40:00,32.6,29.4,30.18,West,270,1.3,2.0,88,0.00,,,0.01,WUHU216HW,2012-11-11 07:40:00,
2012-11-10 23:45:00,32.6,29.4,30.19,West,270,2.0,2.7,88,0.00,,,0.01,WUHU216HW,2012-11-11 07:45:00,
2012-11-10 23:50:00,32.6,29.4,30.19,NW,315,1.1,2.7,88,0.00,,,0.01,WUHU216HW,2012-11-11 07:50:00,
2012-11-10 23:55:00,32.6,29.4,30.18,WNW,293,1.1,2.5,88,0.00,,,0.01,WUHU216HW,2012-11-11 07:55:00,